Location: Pinon Hills
(34.4429°N, 117.6403°W)
Time: 09:44:56
(UTC-07:00)

Daily predictions for brighter satellites

Satellite Brightness Start Highest point End
(mag) Time Altitude Azimuth Time Altitude Azimuth Time Altitude Azimuth
FENGYUN 3A 4.2 19:50:02 10° SE 19:54:58 39° ENE 19:59:54 10° N
Cosmos 2227 Rocket 3.4 19:50:53 10° N 19:55:27 24° ENE 19:59:58 10° ESE
Cosmos 2208 Rocket 4.2 19:50:57 10° S 19:56:01 49° ESE 20:01:11 10° NNE
CZ-3C R/B 4.2 18:09:44 10° WSW 20:00:10 52° SSW 20:09:52 11° ESE
NOSS 7 (D) 4.4 19:56:47 10° SSW 20:00:24 61° ESE 20:03:42 10° NE
Meteor 1-5 Rocket 4.2 19:56:16 10° S 20:01:25 55° E 20:06:41 10° NNE
Spot 2 Rocket 3.9 20:00:56 10° S 20:06:00 70° WSW 20:11:05 10° NNW
Meteor 1-19 Rocket 4.5 20:01:13 10° NNW 20:06:52 76° W 20:12:25 10° S
NOSS 3-4 (A) 4.2 20:01:58 10° NNW 20:08:46 48° NE 20:15:30 12° SE
NOSS 3-4 (C) 4.2 20:02:05 10° NNW 20:08:53 48° NE 20:15:34 12° SE
Cosmos 2297 Rocket 3.5 20:06:37 10° N 20:11:05 23° ENE 20:14:38 14° ESE
Cosmos 1570 Rocket 4.0 20:07:45 10° SSW 20:13:03 80° ESE 20:18:21 10° NNE
CZ-4B DEB 2.7 20:12:07 10° SSE 20:15:23 87° ENE 20:18:40 10° N
Meteor 2-16 Rocket 4.4 20:14:41 10° S 20:20:45 84° E 20:26:51 10° N
Cosmos 1821 Rocket 4.1 20:15:07 10° S 20:21:14 78° W 20:27:20 10° N
OAO 2 Rocket 3.3 20:18:17 10° WSW 20:23:16 72° SSE 20:27:30 15° E
Cosmos 1605 Rocket 4.0 20:17:55 10° S 20:24:09 62° E 20:30:22 10° NNE
Cosmos 1975 3.2 20:27:40 10° SSE 20:31:33 43° E 20:35:27 10° NNE
Iridium 4 Rocket 3.9 20:29:28 10° NNE 20:34:08 37° E 20:36:38 21° SE
Okean 2 3.5 20:30:56 10° N 20:35:06 76° W 20:39:14 10° S
ATLAS 3B CENTAUR R/B 2.3 20:35:06 10° SW 20:35:34 12° SSW 20:35:34 12° SSW
DELTA 2 R/B (1) 4.2 20:31:39 10° WNW 20:37:05 51° N 20:41:10 17° ENE
H-2A R/B 3.6 20:43:39 18° ENE 20:43:39 18° ENE 20:46:23 10° NNE
Lacrosse 5 rocket 2.4 20:41:22 10° NNW 20:44:25 24° NE 20:45:09 22° ENE
Cosmos 1697 Rocket 3.0 20:40:56 10° S 20:46:14 44° ESE 20:51:34 10° NE
H-2A R/B 3.3 20:43:48 10° S 20:47:36 59° W 20:51:28 10° NNW
ALOS 3.0 20:43:11 10° S 20:47:44 54° W 20:52:20 10° NNW
Cosmos 2278 4.3 20:43:14 10° SSW 20:48:48 59° WNW 20:54:26 10° NNE
ERS-1 Rocket 3.2 20:47:46 28° SE 20:50:04 48° ENE 20:54:53 10° N
Cosmos 1626 Rocket 3.6 20:46:35 10° N 20:50:56 59° E 20:52:46 32° SSE
Cosmos 1455 Rocket 4.2 20:47:22 10° SSW 20:51:30 45° W 20:55:40 10° N
deb Chang Zheng 4 4.2 20:51:51 10° NNE 20:55:42 35° E 20:55:42 35° E
Cosmos 1461 2.7 20:52:48 10° NNW 20:56:50 70° ENE 20:57:43 49° SE
Cosmos 2123 Rocket 4.2 20:50:54 10° N 20:57:02 72° W 21:03:10 10° S
Chunghua 1 4.5 20:53:58 10° WSW 20:57:50 72° SSE 20:58:34 54° ESE
Cosmos 1898 Rocket 4.2 20:53:36 10° N 20:58:27 35° ENE 20:59:26 33° E
Cosmos 1602 Rocket 3.4 20:54:56 10° N 20:59:24 75° E 21:01:15 34° SSE
Meteor 1-12 Rocket 4.4 20:54:24 10° SSW 21:00:05 79° W 21:05:55 10° N
Cosmos 1939 Rocket 3.0 21:03:34 50° E 21:03:58 53° ENE 21:08:01 10° N
SL-24 R/B - RUBIN 2 4.4 21:01:46 10° SSW 21:07:26 81° WNW 21:13:51 10° NNE
Milstar 3 Cent rocket 4.3 20:45:43 10° W 21:08:21 69° S 21:14:46 31° ESE
Cosmos 1980 Rocket 2.6 21:08:26 40° ESE 21:08:26 40° ESE 21:13:39 10° NE
Cosmos 1459 Rocket 4.0 21:05:51 29° SSE 21:08:43 54° E 21:14:37 10° NNE
Hubble Space Telescope 2.5 21:10:55 10° WSW 21:13:46 20° SSW 21:13:46 20° SSW
Cosmos 468 Rocket 3.8 21:08:57 10° SSW 21:14:04 81° ESE 21:19:12 10° NNE
USA 186 4.1 21:13:12 12° SW 21:15:14 21° W 21:17:37 10° NW
Lacrosse 5 3.3 21:13:50 10° NNW 21:17:59 24° NE 21:18:37 24° NE
Cosmos 2084 4.5 21:15:44 10° NNW 21:18:57 32° NE 21:18:57 32° NE
Tiangong 1 3.5 21:18:08 10° NW 21:20:18 17° N 21:20:21 17° N
SPOT 5 3.3 21:20:37 45° ENE 21:20:37 45° ENE 21:25:15 10° N
OTV 4 2.1 21:17:58 10° WNW 21:19:48 33° WNW 21:19:48 33° WNW
Cosmos 1814 Rocket 3.9 21:17:06 11° SSW 21:22:19 81° ESE 21:27:39 10° NNE
Cosmos 220 Rocket 3.8 21:18:54 10° NNW 21:23:07 83° WSW 21:23:17 80° SSW
Delta 2 Rocket 3.9 21:22:38 10° W 21:28:05 63° SSW 21:28:23 62° S
Cosmos 1500 4.0 21:28:22 43° WSW 21:29:01 49° W 21:32:42 10° N
MetOp-B 4.4 21:30:43 49° ENE 21:30:43 49° ENE 21:35:42 10° N
Cosmos 1802 Rocket 3.9 21:32:30 42° S 21:34:47 78° E 21:41:13 10° N
RESURS DK-1 3.9 21:31:51 10° N 21:34:13 27° NNE 21:34:13 27° NNE
Cosmos 2227 Rocket 3.2 21:34:20 10° NW 21:39:35 40° WSW 21:42:04 26° SSW
Cosmos 858 Rocket 4.4 21:38:21 10° NNW 21:43:35 86° NE 21:43:35 86° NE
Cosmos 2298 Rocket 4.2 21:43:55 10° NNW 21:49:12 67° WSW 21:49:30 65° SW
Cosmos 2016 Rocket 3.8 21:52:14 73° S 21:52:54 90° WNW 21:59:06 10° N
Cosmos 2297 Rocket 3.1 21:49:57 10° NW 21:55:15 42° WSW 21:56:28 37° SW
Envisat 3.7 21:54:39 44° SW 21:55:20 47° W 22:00:14 10° NNW
H-2A R/B 3.9 22:00:30 18° NNE 22:00:30 18° NNE 22:02:13 10° NNE
Terra 4.2 22:02:30 14° NNE 22:02:30 14° NNE 22:03:21 10° NNE
Cosmos 1937 Rocket 3.9 21:59:35 10° NNW 22:04:03 62° NW 22:04:03 62° NW
ASTEX 1 4.0 22:01:27 10° N 22:05:29 53° NNW 22:05:29 53° NNW
Cosmos 2098 Rocket 4.0 22:07:38 86° SSE 22:07:48 88° E 22:14:08 10° N
OAO 2 Rocket 4.3 22:03:01 10° W 22:06:29 44° W 22:06:29 44° W
SPOT 1/Viking Rocket 4.5 22:18:31 45° NNW 22:18:31 45° NNW 22:22:05 10° NNW
H-2A R/B 4.2 22:20:48 23° WNW 22:20:48 23° WNW 22:22:55 10° NW
Lacrosse 5 rocket 4.2 22:20:33 10° WNW 22:20:53 12° WNW 22:20:53 12° WNW
Tsikada Rocket 4.4 22:20:09 10° N 22:25:17 59° N 22:25:17 59° N
SL-16 R/B 4.3 22:39:10 17° NNE 22:39:10 17° NNE 22:40:26 10° NNE
Cosmos 1980 Rocket 4.2 22:50:00 19° W 22:52:28 25° WNW 22:57:05 10° N
Lacrosse 5 4.2 22:56:16 10° NW 22:57:49 20° NW 22:57:49 20° NW
USA 215 4.2 23:19:35 41° NW 23:19:35 41° NW 23:23:38 10° NW
Cosmos 2322 Rocket 4.4 23:26:55 20° N 23:26:55 20° N 23:28:54 10° N
Cosmos 2263 Rocket 4.4 23:19:54 10° NNW 23:21:38 21° NNW 23:21:38 21° NNW
